Terminal Aerodrome Forecast
Issued by NWS Columbia, SC

Home | Current Version | Previous Version | Text Only | Print | Product List | Glossary On
Versions: 1 2 3 4 5 6 7 8 9 10 11 12 13 14 15 16 17 18 19 20 21 22 23 24 25 26 27 28 29 30 31 32 33 34 35 36 37 38 39 40 41 42 43 44
000
FTUS42 KCAE 020500
TAFAGS
TAF
KAGS 020532Z 0206/0306 01006KT P6SM OVC007
      TEMPO 0209/0212 4SM BR BKN004
     FM021500 03005KT P6SM BKN015 BKN040
     FM022000 03006KT P6SM VCSH SCT025 OVC050
     FM030200 VRB03KT P6SM OVC050=

USA.gov is the U.S. government's official web portal to all federal, state and local government web resources and services.